Time,TemperatureF,DewpointF,PressureIn,WindDirection,WindDirectionDegrees,WindSpeedMPH,WindSpeedGustMPH,Humidity,HourlyPrecipIn,Conditions,Clouds,dailyrainin,SolarRadiationWatts/m^2,SoftwareType,DateUTC
2013-06-03 00:00:00,68.3,67.1,29.90,North,360,0.0,0.0,96,0.00,,,0.28,0,Wunderground v.1.15,2013-06-03 05:00:00,
2013-06-03 00:05:00,68.3,67.1,29.90,North,360,0.0,0.0,96,0.00,,,0.00,0,Wunderground v.1.15,2013-06-03 05:05:00,
2013-06-03 00:10:00,68.2,67.0,29.90,North,360,0.0,0.0,96,0.00,,,0.00,0,Wunderground v.1.15,2013-06-03 05:10:00,
2013-06-03 00:20:00,68.0,66.8,29.90,North,360,0.0,0.0,96,0.00,,,0.00,0,Wunderground v.1.15,2013-06-03 05:20:00,
2013-06-03 00:25:00,67.9,66.7,29.90,North,360,0.0,0.0,96,0.00,,,0.00,0,Wunderground v.1.15,2013-06-03 05:25:00,
2013-06-03 00:30:00,67.8,66.6,29.90,North,360,0.0,0.0,96,0.00,,,0.00,0,Wunderground v.1.15,2013-06-03 05:30:00,
2013-06-03 00:35:00,67.8,66.6,29.90,North,360,0.0,0.0,96,0.00,,,0.00,0,Wunderground v.1.15,2013-06-03 05:35:00,
2013-06-03 00:40:00,67.9,66.7,29.90,North,360,0.0,0.0,96,0.00,,,0.00,0,Wunderground v.1.15,2013-06-03 05:40:00,
2013-06-03 00:50:00,67.7,66.5,29.90,North,360,0.0,0.0,96,0.00,,,0.00,0,Wunderground v.1.15,2013-06-03 05:50:00,
2013-06-03 00:55:00,67.6,66.4,29.90,North,360,0.0,0.0,96,0.00,,,0.00,0,Wunderground v.1.15,2013-06-03 05:55:00,
2013-06-03 01:05:00,67.5,66.3,29.90,North,360,0.0,0.0,96,0.00,,,0.00,0,Wunderground v.1.15,2013-06-03 06:05:00,
2013-06-03 01:15:00,67.2,66.0,29.90,North,360,0.0,0.0,96,0.00,,,0.00,0,Wunderground v.1.15,2013-06-03 06:15:00,
2013-06-03 01:20:00,67.2,66.0,29.89,North,360,0.0,0.0,96,0.00,,,0.00,0,Wunderground v.1.15,2013-06-03 06:20:00,
2013-06-03 01:25:00,67.0,65.8,29.90,North,360,0.0,0.0,96,0.00,,,0.00,0,Wunderground v.1.15,2013-06-03 06:25:00,
2013-06-03 01:30:00,66.9,65.7,29.90,North,360,0.0,0.0,96,0.00,,,0.00,0,Wunderground v.1.15,2013-06-03 06:30:00,
2013-06-03 01:40:00,66.9,65.7,29.90,North,360,0.0,0.0,96,0.00,,,0.00,0,Wunderground v.1.15,2013-06-03 06:40:00,
2013-06-03 01:45:00,66.8,65.6,29.90,North,360,0.0,0.0,96,0.00,,,0.00,0,Wunderground v.1.15,2013-06-03 06:45:00,
2013-06-03 01:50:00,66.7,65.5,29.89,North,360,0.0,0.0,96,0.00,,,0.00,0,Wunderground v.1.15,2013-06-03 06:50:00,
2013-06-03 01:55:00,66.7,65.5,29.90,North,360,0.0,0.0,96,0.00,,,0.00,0,Wunderground v.1.15,2013-06-03 06:55:00,
2013-06-03 02:00:00,66.7,65.5,29.90,North,360,0.0,0.0,96,0.00,,,0.00,0,Wunderground v.1.15,2013-06-03 07:00:00,
2013-06-03 02:09:00,66.7,65.5,29.91,North,360,0.0,0.0,96,0.00,,,0.00,0,Wunderground v.1.15,2013-06-03 07:09:00,
2013-06-03 02:15:00,66.6,65.4,29.91,North,360,0.0,0.0,96,0.00,,,0.00,0,Wunderground v.1.15,2013-06-03 07:15:00,
2013-06-03 02:20:00,66.5,65.3,29.91,North,360,0.0,0.0,96,0.00,,,0.00,0,Wunderground v.1.15,2013-06-03 07:20:00,
2013-06-03 02:25:00,66.4,65.2,29.91,North,360,0.0,0.0,96,0.00,,,0.00,0,Wunderground v.1.15,2013-06-03 07:25:00,
2013-06-03 02:30:00,66.3,65.1,29.91,North,360,0.0,0.0,96,0.00,,,0.00,0,Wunderground v.1.15,2013-06-03 07:30:00,
2013-06-03 02:40:00,66.2,65.0,29.91,North,360,0.0,0.0,96,0.00,,,0.00,0,Wunderground v.1.15,2013-06-03 07:40:00,
2013-06-03 02:50:00,66.4,65.5,29.91,North,360,0.0,0.0,97,0.00,,,0.00,0,Wunderground v.1.15,2013-06-03 07:50:00,
2013-06-03 02:55:00,66.3,65.4,29.91,North,360,0.0,0.0,97,0.00,,,0.00,0,Wunderground v.1.15,2013-06-03 07:55:00,
2013-06-03 03:00:00,66.3,65.1,29.91,North,360,0.0,0.0,96,0.00,,,0.00,0,Wunderground v.1.15,2013-06-03 08:00:00,
2013-06-03 03:10:00,66.1,64.9,29.91,North,360,0.0,0.0,96,0.00,,,0.00,0,Wunderground v.1.15,2013-06-03 08:10:00,
2013-06-03 03:15:00,66.0,64.8,29.91,North,360,0.0,0.0,96,0.00,,,0.00,0,Wunderground v.1.15,2013-06-03 08:15:00,
2013-06-03 03:20:00,65.9,65.0,29.91,North,360,0.0,0.0,97,0.00,,,0.00,0,Wunderground v.1.15,2013-06-03 08:20:00,
2013-06-03 03:25:00,65.8,64.9,29.91,North,360,0.0,0.0,97,0.00,,,0.00,0,Wunderground v.1.15,2013-06-03 08:25:00,
2013-06-03 03:30:00,65.7,64.5,29.91,North,360,0.0,0.0,96,0.00,,,0.00,0,Wunderground v.1.15,2013-06-03 08:30:00,
2013-06-03 03:40:00,65.6,64.7,29.91,North,360,0.0,0.0,97,0.00,,,0.00,0,Wunderground v.1.15,2013-06-03 08:40:00,
2013-06-03 03:45:00,65.7,64.8,29.92,North,360,0.0,0.0,97,0.00,,,0.00,0,Wunderground v.1.15,2013-06-03 08:45:00,
2013-06-03 03:50:00,65.7,64.8,29.92,North,360,0.0,0.0,97,0.00,,,0.00,0,Wunderground v.1.15,2013-06-03 08:50:00,
2013-06-03 04:00:00,65.7,64.8,29.92,North,360,0.0,0.0,97,0.00,,,0.00,0,Wunderground v.1.15,2013-06-03 09:00:00,
2013-06-03 04:10:00,65.6,64.7,29.92,North,360,0.0,0.0,97,0.00,,,0.00,0,Wunderground v.1.15,2013-06-03 09:10:00,
2013-06-03 04:15:00,65.6,64.7,29.92,North,360,0.0,0.0,97,0.00,,,0.00,0,Wunderground v.1.15,2013-06-03 09:15:00,
2013-06-03 04:20:00,65.7,64.8,29.91,North,360,0.0,0.0,97,0.00,,,0.00,0,Wunderground v.1.15,2013-06-03 09:20:00,
2013-06-03 04:25:00,65.7,64.8,29.91,North,360,0.0,0.0,97,0.00,,,0.00,0,Wunderground v.1.15,2013-06-03 09:25:00,
2013-06-03 04:35:00,65.8,64.9,29.91,North,360,0.0,0.0,97,0.00,,,0.00,0,Wunderground v.1.15,2013-06-03 09:35:00,
2013-06-03 04:40:00,65.8,64.9,29.91,North,360,0.0,0.0,97,0.00,,,0.00,0,Wunderground v.1.15,2013-06-03 09:40:00,
2013-06-03 04:45:00,65.7,64.8,29.91,North,360,0.0,0.0,97,0.00,,,0.00,0,Wunderground v.1.15,2013-06-03 09:45:00,
2013-06-03 04:50:00,65.6,64.7,29.91,North,360,0.0,0.0,97,0.00,,,0.00,0,Wunderground v.1.15,2013-06-03 09:50:00,
2013-06-03 05:00:00,65.6,64.7,29.92,North,360,0.0,0.0,97,0.00,,,0.00,0,Wunderground v.1.15,2013-06-03 10:00:00,
2013-06-03 05:05:00,65.6,64.7,29.92,North,360,0.0,0.0,97,0.00,,,0.00,0,Wunderground v.1.15,2013-06-03 10:05:00,
2013-06-03 05:10:00,65.6,64.7,29.92,North,360,0.0,0.0,97,0.00,,,0.00,0,Wunderground v.1.15,2013-06-03 10:10:00,
2013-06-03 05:15:00,65.6,64.7,29.92,North,360,0.0,0.0,97,0.00,,,0.00,0,Wunderground v.1.15,2013-06-03 10:15:00,
2013-06-03 05:25:00,65.6,64.7,29.92,North,360,0.0,0.0,97,0.00,,,0.00,0,Wunderground v.1.15,2013-06-03 10:25:00,
2013-06-03 05:30:00,65.6,64.7,29.92,North,360,0.0,0.0,97,0.00,,,0.00,0,Wunderground v.1.15,2013-06-03 10:30:00,
2013-06-03 05:35:00,65.6,64.7,29.92,North,360,0.0,0.0,97,0.00,,,0.00,0,Wunderground v.1.15,2013-06-03 10:35:00,
2013-06-03 05:45:00,65.6,64.7,29.92,North,360,0.0,0.0,97,0.00,,,0.00,0,Wunderground v.1.15,2013-06-03 10:45:00,
2013-06-03 05:55:00,65.6,64.7,29.93,North,360,0.0,0.0,97,0.00,,,0.00,0,Wunderground v.1.15,2013-06-03 10:55:00,
2013-06-03 06:00:00,65.6,64.7,29.92,North,360,0.0,0.0,97,0.00,,,0.00,0,Wunderground v.1.15,2013-06-03 11:00:00,
2013-06-03 06:10:00,65.6,64.7,29.93,North,360,0.0,0.0,97,0.00,,,0.00,0,Wunderground v.1.15,2013-06-03 11:10:00,
2013-06-03 06:15:00,65.7,64.8,29.93,North,360,0.0,0.0,97,0.00,,,0.00,5,Wunderground v.1.15,2013-06-03 11:15:00,
2013-06-03 06:20:00,65.7,64.8,29.93,North,360,0.0,0.0,97,0.00,,,0.00,7,Wunderground v.1.15,2013-06-03 11:20:00,
2013-06-03 06:25:00,65.6,64.7,29.94,North,360,0.0,0.0,97,0.00,,,0.00,11,Wunderground v.1.15,2013-06-03 11:25:00,
2013-06-03 06:30:00,65.7,64.8,29.94,North,360,0.0,0.0,97,0.00,,,0.00,16,Wunderground v.1.15,2013-06-03 11:30:00,
2013-06-03 06:39:00,65.8,64.9,29.94,North,360,1.0,1.0,97,0.00,,,0.00,23,Wunderground v.1.15,2013-06-03 11:39:00,
2013-06-03 06:45:00,65.8,64.9,29.94,North,360,0.0,1.0,97,0.00,,,0.00,28,Wunderground v.1.15,2013-06-03 11:45:00,
2013-06-03 06:50:00,65.9,65.0,29.94,North,360,0.0,0.0,97,0.00,,,0.00,32,Wunderground v.1.15,2013-06-03 11:50:00,
2013-06-03 06:55:00,66.1,65.2,29.94,North,360,0.0,0.0,97,0.00,,,0.00,33,Wunderground v.1.15,2013-06-03 11:55:00,
2013-06-03 07:00:00,66.2,65.3,29.94,North,360,1.0,1.0,97,0.00,,,0.00,86,Wunderground v.1.15,2013-06-03 12:00:00,
2013-06-03 07:10:00,66.9,66.3,29.94,North,360,1.0,1.0,98,0.00,,,0.00,113,Wunderground v.1.15,2013-06-03 12:10:00,
2013-06-03 07:15:00,67.2,66.6,29.94,North,360,1.0,1.0,98,0.00,,,0.00,134,Wunderground v.1.15,2013-06-03 12:15:00,
2013-06-03 07:20:00,67.6,67.0,29.94,North,360,1.0,1.0,98,0.00,,,0.00,156,Wunderground v.1.15,2013-06-03 12:20:00,
2013-06-03 07:25:00,67.9,67.3,29.94,North,360,1.0,2.0,98,0.00,,,0.00,169,Wunderground v.1.15,2013-06-03 12:25:00,
2013-06-03 07:35:00,68.7,67.5,29.94,North,360,2.0,2.0,96,0.00,,,0.00,192,Wunderground v.1.15,2013-06-03 12:35:00,
2013-06-03 07:40:00,69.1,67.6,29.94,North,360,2.0,2.0,95,0.00,,,0.00,213,Wunderground v.1.15,2013-06-03 12:40:00,
2013-06-03 07:45:00,69.5,67.7,29.94,North,360,2.0,3.0,94,0.00,,,0.00,236,Wunderground v.1.15,2013-06-03 12:45:00,
2013-06-03 07:50:00,69.9,68.1,29.94,North,355,2.0,2.0,94,0.00,,,0.00,253,Wunderground v.1.15,2013-06-03 12:50:00,
2013-06-03 08:00:00,70.8,68.7,29.94,North,360,2.0,2.0,93,0.00,,,0.00,290,Wunderground v.1.15,2013-06-03 13:00:00,
2013-06-03 08:10:00,72.0,69.5,29.94,North,360,1.0,1.0,92,0.00,,,0.00,334,Wunderground v.1.15,2013-06-03 13:10:00,
2013-06-03 08:20:00,73.1,70.0,29.95,North,9,1.0,2.0,90,0.00,,,0.00,371,Wunderground v.1.15,2013-06-03 13:20:00,
2013-06-03 08:25:00,73.5,69.7,29.95,ENE,74,2.0,4.0,88,0.00,,,0.00,383,Wunderground v.1.15,2013-06-03 13:25:00,
2013-06-03 08:30:00,73.6,70.2,29.95,ENE,63,2.0,2.0,89,0.00,,,0.00,403,Wunderground v.1.15,2013-06-03 13:30:00,
2013-06-03 08:39:00,74.6,70.8,29.94,North,5,2.0,3.0,88,0.00,,,0.00,434,Wunderground v.1.15,2013-06-03 13:39:00,
2013-06-03 08:50:00,75.9,71.1,29.94,ENE,60,2.0,3.0,85,0.00,,,0.00,469,Wunderground v.1.15,2013-06-03 13:50:00,
2013-06-03 08:55:00,76.0,71.2,29.94,ENE,70,2.0,5.0,85,0.00,,,0.00,487,Wunderground v.1.15,2013-06-03 13:55:00,
2013-06-03 09:00:00,76.2,71.0,29.94,NNE,33,3.0,4.0,84,0.00,,,0.00,506,Wunderground v.1.15,2013-06-03 14:00:00,
2013-06-03 09:05:00,76.4,70.5,29.94,ENE,66,3.0,4.0,82,0.00,,,0.00,526,Wunderground v.1.15,2013-06-03 14:05:00,
2013-06-03 09:15:00,77.3,71.4,29.94,ENE,68,2.0,4.0,82,0.00,,,0.00,561,Wunderground v.1.15,2013-06-03 14:15:00,
2013-06-03 09:20:00,77.8,71.1,29.94,NNW,345,2.0,5.0,80,0.00,,,0.00,582,Wunderground v.1.15,2013-06-03 14:20:00,
2013-06-03 09:25:00,78.5,71.4,29.94,NNW,333,2.0,5.0,79,0.00,,,0.00,594,Wunderground v.1.15,2013-06-03 14:25:00,
2013-06-03 09:30:00,79.2,71.4,29.94,North,355,2.0,3.0,77,0.00,,,0.00,613,Wunderground v.1.15,2013-06-03 14:30:00,
2013-06-03 09:40:00,79.4,70.8,29.94,ENE,57,2.0,5.0,75,0.00,,,0.00,643,Wunderground v.1.15,2013-06-03 14:40:00,
2013-06-03 09:45:00,78.8,70.6,29.94,ENE,76,3.0,5.0,76,0.00,,,0.00,657,Wunderground v.1.15,2013-06-03 14:45:00,
2013-06-03 09:50:00,78.6,70.4,29.94,North,350,3.0,6.0,76,0.00,,,0.00,673,Wunderground v.1.15,2013-06-03 14:50:00,
2013-06-03 10:00:00,79.9,70.5,29.94,NNW,330,3.0,3.0,73,0.00,,,0.00,703,Wunderground v.1.15,2013-06-03 15:00:00,
2013-06-03 10:10:00,79.7,70.3,29.94,ENE,69,3.0,4.0,73,0.00,,,0.00,728,Wunderground v.1.15,2013-06-03 15:10:00,
2013-06-03 10:15:00,79.7,69.9,29.93,North,360,3.0,4.0,72,0.00,,,0.00,721,Wunderground v.1.15,2013-06-03 15:15:00,
2013-06-03 10:25:00,80.4,70.1,29.94,ENE,61,3.0,4.0,71,0.00,,,0.00,751,Wunderground v.1.15,2013-06-03 15:25:00,
2013-06-03 10:30:00,80.6,70.3,29.94,NNW,348,3.0,4.0,71,0.00,,,0.00,782,Wunderground v.1.15,2013-06-03 15:30:00,
2013-06-03 10:35:00,81.5,70.8,29.93,North,5,3.0,4.0,70,0.00,,,0.00,798,Wunderground v.1.15,2013-06-03 15:35:00,
2013-06-03 10:40:00,81.7,70.1,29.93,North,360,4.0,5.0,68,0.00,,,0.00,819,Wunderground v.1.15,2013-06-03 15:40:00,
2013-06-03 10:45:00,81.5,69.5,29.93,East,92,3.0,5.0,67,0.00,,,0.00,758,Wunderground v.1.15,2013-06-03 15:45:00,
2013-06-03 10:55:00,80.9,70.2,29.93,NNE,21,3.0,3.0,70,0.00,,,0.00,874,Wunderground v.1.15,2013-06-03 15:55:00,
2013-06-03 11:00:00,81.3,70.2,29.93,NNE,17,2.0,2.0,69,0.00,,,0.00,888,Wunderground v.1.15,2013-06-03 16:00:00,
2013-06-03 11:05:00,82.3,70.7,29.93,North,360,2.0,7.0,68,0.00,,,0.00,896,Wunderground v.1.15,2013-06-03 16:05:00,
2013-06-03 11:15:00,82.5,70.4,29.93,NE,36,2.0,3.0,67,0.00,,,0.00,276,Wunderground v.1.15,2013-06-03 16:15:00,
2013-06-03 11:25:00,82.2,69.7,29.93,NE,47,2.0,6.0,66,0.00,,,0.00,1013,Wunderground v.1.15,2013-06-03 16:25:00,
2013-06-03 11:30:00,81.9,70.3,29.93,ENE,74,3.0,3.0,68,0.00,,,0.00,1016,Wunderground v.1.15,2013-06-03 16:30:00,
2013-06-03 11:35:00,82.4,71.2,29.93,ENE,70,3.0,3.0,69,0.00,,,0.00,1021,Wunderground v.1.15,2013-06-03 16:35:00,
2013-06-03 11:45:00,83.5,70.0,29.93,NNW,339,2.0,3.0,64,0.00,,,0.00,325,Wunderground v.1.15,2013-06-03 16:45:00,
2013-06-03 11:50:00,84.1,71.1,29.93,East,87,2.0,2.0,65,0.00,,,0.00,1141,Wunderground v.1.15,2013-06-03 16:50:00,
2013-06-03 11:55:00,84.0,70.0,29.93,NNW,344,2.0,5.0,63,0.00,,,0.00,244,Wunderground v.1.15,2013-06-03 16:55:00,
2013-06-03 12:00:00,83.9,69.0,29.93,NNW,333,3.0,3.0,61,0.00,,,0.00,1023,Wunderground v.1.15,2013-06-03 17:00:00,
2013-06-03 12:09:00,85.1,69.2,29.92,North,355,4.0,6.0,59,0.00,,,0.00,1083,Wunderground v.1.15,2013-06-03 17:09:00,
2013-06-03 12:15:00,84.9,68.5,29.92,NNW,342,4.0,6.0,58,0.00,,,0.00,939,Wunderground v.1.15,2013-06-03 17:15:00,
2013-06-03 12:20:00,85.4,69.9,29.92,NNW,327,2.0,2.0,60,0.00,,,0.00,1030,Wunderground v.1.15,2013-06-03 17:20:00,
2013-06-03 12:25:00,85.0,70.0,29.92,ENE,76,2.0,2.0,61,0.00,,,0.00,1034,Wunderground v.1.15,2013-06-03 17:25:00,
2013-06-03 12:30:00,85.3,70.3,29.91,NW,317,3.0,4.0,61,0.00,,,0.00,995,Wunderground v.1.15,2013-06-03 17:30:00,
2013-06-03 12:39:00,85.7,69.2,29.91,NE,53,4.0,4.0,58,0.00,,,0.00,360,Wunderground v.1.15,2013-06-03 17:39:00,
2013-06-03 12:45:00,84.8,67.4,29.91,NE,56,3.0,4.0,56,0.00,,,0.00,1013,Wunderground v.1.15,2013-06-03 17:45:00,
2013-06-03 12:50:00,85.0,69.6,29.91,North,5,3.0,3.0,60,0.00,,,0.00,1025,Wunderground v.1.15,2013-06-03 17:50:00,
2013-06-03 13:00:00,84.7,69.8,29.91,North,355,2.0,4.0,61,0.00,,,0.00,1085,Wunderground v.1.15,2013-06-03 18:00:00,
2013-06-03 13:09:00,84.9,69.5,29.90,North,360,3.0,6.0,60,0.00,,,0.00,383,Wunderground v.1.15,2013-06-03 18:09:00,
2013-06-03 13:15:00,85.1,68.2,29.90,ENE,69,3.0,6.0,57,0.00,,,0.00,1028,Wunderground v.1.15,2013-06-03 18:15:00,
2013-06-03 13:20:00,85.1,68.2,29.90,ENE,65,3.0,3.0,57,0.00,,,0.00,1074,Wunderground v.1.15,2013-06-03 18:20:00,
2013-06-03 13:25:00,85.2,68.2,29.90,NNW,336,2.0,3.0,57,0.00,,,0.00,1155,Wunderground v.1.15,2013-06-03 18:25:00,
2013-06-03 13:34:00,85.4,69.4,29.89,NNW,345,3.0,4.0,59,0.00,,,0.00,1051,Wunderground v.1.15,2013-06-03 18:34:00,
2013-06-03 13:40:00,85.8,69.8,29.89,NNW,348,3.0,6.0,59,0.00,,,0.00,677,Wunderground v.1.15,2013-06-03 18:40:00,
2013-06-03 13:45:00,86.4,70.4,29.89,North,355,3.0,6.0,59,0.00,,,0.00,1100,Wunderground v.1.15,2013-06-03 18:45:00,
2013-06-03 13:50:00,86.1,68.0,29.89,NNW,347,3.0,4.0,55,0.00,,,0.00,1009,Wunderground v.1.15,2013-06-03 18:50:00,
2013-06-03 13:55:00,85.7,67.1,29.89,NNE,30,2.0,4.0,54,0.00,,,0.00,995,Wunderground v.1.15,2013-06-03 18:55:00,
2013-06-03 14:05:00,85.8,68.3,29.88,North,360,1.0,4.0,56,0.00,,,0.00,995,Wunderground v.1.15,2013-06-03 19:05:00,
2013-06-03 14:10:00,86.8,69.2,29.88,NNW,340,2.0,2.0,56,0.00,,,0.00,1011,Wunderground v.1.15,2013-06-03 19:10:00,
2013-06-03 14:15:00,87.6,68.9,29.88,NNW,346,2.0,4.0,54,0.00,,,0.00,1100,Wunderground v.1.15,2013-06-03 19:15:00,
2013-06-03 14:24:00,87.7,68.4,29.88,NNW,347,3.0,4.0,53,0.00,,,0.00,969,Wunderground v.1.15,2013-06-03 19:24:00,
2013-06-03 14:30:00,88.0,67.0,29.88,North,355,4.0,11.0,50,0.00,,,0.00,962,Wunderground v.1.15,2013-06-03 19:30:00,
2013-06-03 14:35:00,87.8,67.4,29.88,NE,35,5.0,11.0,51,0.00,,,0.00,958,Wunderground v.1.15,2013-06-03 19:35:00,
2013-06-03 14:40:00,87.5,67.1,29.88,NNE,30,3.0,3.0,51,0.00,,,0.00,954,Wunderground v.1.15,2013-06-03 19:40:00,
2013-06-03 14:50:00,87.8,68.0,29.87,East,79,2.0,4.0,52,0.00,,,0.00,939,Wunderground v.1.15,2013-06-03 19:50:00,
2013-06-03 15:00:00,86.6,68.0,29.87,ENE,73,2.0,2.0,54,0.00,,,0.00,919,Wunderground v.1.15,2013-06-03 20:00:00,
2013-06-03 15:05:00,86.5,68.4,29.86,ENE,63,3.0,3.0,55,0.00,,,0.00,896,Wunderground v.1.15,2013-06-03 20:05:00,
2013-06-03 15:10:00,86.7,68.1,29.86,NNW,334,2.0,4.0,54,0.00,,,0.00,888,Wunderground v.1.15,2013-06-03 20:10:00,
2013-06-03 15:15:00,87.6,69.4,29.86,North,350,2.0,4.0,55,0.00,,,0.00,877,Wunderground v.1.15,2013-06-03 20:15:00,
2013-06-03 15:25:00,87.7,69.0,29.86,ENE,68,2.0,4.0,54,0.00,,,0.00,856,Wunderground v.1.15,2013-06-03 20:25:00,
2013-06-03 15:30:00,87.2,68.5,29.86,North,9,3.0,3.0,54,0.00,,,0.00,842,Wunderground v.1.15,2013-06-03 20:30:00,
2013-06-03 15:35:00,87.6,68.4,29.85,NW,318,2.0,3.0,53,0.00,,,0.00,830,Wunderground v.1.15,2013-06-03 20:35:00,
2013-06-03 15:40:00,87.8,68.0,29.86,NNE,17,2.0,3.0,52,0.00,,,0.00,812,Wunderground v.1.15,2013-06-03 20:40:00,
2013-06-03 15:50:00,87.8,68.5,29.85,NE,43,2.0,2.0,53,0.00,,,0.00,793,Wunderground v.1.15,2013-06-03 20:50:00,
2013-06-03 15:55:00,87.4,67.1,29.85,ENE,59,2.0,2.0,51,0.00,,,0.00,784,Wunderground v.1.15,2013-06-03 20:55:00,
2013-06-03 16:05:00,86.6,69.0,29.85,East,84,2.0,3.0,56,0.00,,,0.00,758,Wunderground v.1.15,2013-06-03 21:05:00,
2013-06-03 16:10:00,86.7,68.1,29.85,East,92,3.0,4.0,54,0.00,,,0.00,752,Wunderground v.1.15,2013-06-03 21:10:00,
2013-06-03 16:15:00,86.5,67.9,29.85,NNW,347,3.0,4.0,54,0.00,,,0.00,740,Wunderground v.1.15,2013-06-03 21:15:00,
2013-06-03 16:25:00,86.9,68.3,29.85,NE,40,3.0,5.0,54,0.00,,,0.00,703,Wunderground v.1.15,2013-06-03 21:25:00,
2013-06-03 16:30:00,86.7,67.5,29.84,NE,42,2.0,2.0,53,0.00,,,0.00,691,Wunderground v.1.15,2013-06-03 21:30:00,
2013-06-03 16:35:00,86.6,68.0,29.84,NE,38,2.0,4.0,54,0.00,,,0.00,677,Wunderground v.1.15,2013-06-03 21:35:00,
2013-06-03 16:40:00,86.7,68.6,29.84,South,182,2.0,2.0,55,0.00,,,0.00,659,Wunderground v.1.15,2013-06-03 21:40:00,
2013-06-03 16:45:00,87.2,69.1,29.84,NE,36,1.0,2.0,55,0.00,,,0.00,642,Wunderground v.1.15,2013-06-03 21:45:00,
2013-06-03 16:55:00,87.2,69.1,29.84,East,96,2.0,3.0,55,0.00,,,0.00,612,Wunderground v.1.15,2013-06-03 21:55:00,
2013-06-03 17:00:00,87.0,68.3,29.84,North,5,3.0,3.0,54,0.00,,,0.00,592,Wunderground v.1.15,2013-06-03 22:00:00,
2013-06-03 17:10:00,87.3,69.2,29.84,NNE,18,2.0,2.0,55,0.00,,,0.00,568,Wunderground v.1.15,2013-06-03 22:10:00,
2013-06-03 17:20:00,88.3,69.5,29.83,ESE,112,1.0,1.0,54,0.00,,,0.00,538,Wunderground v.1.15,2013-06-03 22:20:00,
2013-06-03 17:25:00,88.0,68.7,29.83,East,85,2.0,4.0,53,0.00,,,0.00,517,Wunderground v.1.15,2013-06-03 22:25:00,
2013-06-03 17:30:00,87.5,68.3,29.83,NE,38,2.0,3.0,53,0.00,,,0.00,503,Wunderground v.1.15,2013-06-03 22:30:00,
2013-06-03 17:39:00,87.3,68.6,29.83,ENE,63,1.0,1.0,54,0.00,,,0.00,466,Wunderground v.1.15,2013-06-03 22:39:00,
2013-06-03 17:44:00,87.1,68.4,29.84,NNW,348,1.0,1.0,54,0.00,,,0.00,452,Wunderground v.1.15,2013-06-03 22:44:00,
2013-06-03 17:50:00,87.0,68.3,29.84,ENE,60,2.0,5.0,54,0.00,,,0.00,93,Wunderground v.1.15,2013-06-03 22:50:00,
2013-06-03 17:55:00,86.4,67.8,29.83,ENE,69,2.0,5.0,54,0.00,,,0.00,399,Wunderground v.1.15,2013-06-03 22:55:00,
2013-06-03 18:00:00,86.5,71.0,29.83,ENE,71,1.0,1.0,60,0.00,,,0.00,388,Wunderground v.1.15,2013-06-03 23:00:00,
2013-06-03 18:09:00,86.5,67.9,29.83,East,92,1.0,2.0,54,0.00,,,0.00,355,Wunderground v.1.15,2013-06-03 23:09:00,
2013-06-03 18:14:00,86.3,68.2,29.83,NE,54,2.0,2.0,55,0.00,,,0.00,339,Wunderground v.1.15,2013-06-03 23:14:00,
2013-06-03 18:24:00,86.4,68.3,29.83,ENE,65,2.0,2.0,55,0.00,,,0.00,308,Wunderground v.1.15,2013-06-03 23:24:00,
2013-06-03 18:29:00,86.3,69.3,29.83,North,360,2.0,2.0,57,0.00,,,0.00,287,Wunderground v.1.15,2013-06-03 23:29:00,
2013-06-03 18:35:00,86.2,69.2,29.83,ESE,105,2.0,2.0,57,0.00,,,0.00,267,Wunderground v.1.15,2013-06-03 23:35:00,
2013-06-03 18:40:00,86.3,69.3,29.83,North,360,1.0,1.0,57,0.00,,,0.00,251,Wunderground v.1.15,2013-06-03 23:40:00,
2013-06-03 18:45:00,86.4,69.4,29.83,North,10,0.0,1.0,57,0.00,,,0.00,230,Wunderground v.1.15,2013-06-03 23:45:00,
2013-06-03 18:50:00,86.4,68.8,29.84,East,80,1.0,2.0,56,0.00,,,0.00,213,Wunderground v.1.15,2013-06-03 23:50:00,
2013-06-03 18:59:00,86.1,69.6,29.83,ENE,62,1.0,1.0,58,0.00,,,0.00,172,Wunderground v.1.15,2013-06-03 23:59:00,
2013-06-03 19:05:00,86.0,69.5,29.83,ENE,62,0.0,1.0,58,0.00,,,0.00,153,Wunderground v.1.15,2013-06-04 00:05:00,
2013-06-03 19:10:00,85.9,69.4,29.83,ENE,71,1.0,1.0,58,0.00,,,0.00,130,Wunderground v.1.15,2013-06-04 00:10:00,
2013-06-03 19:15:00,85.6,69.1,29.84,ENE,61,1.0,1.0,58,0.00,,,0.00,102,Wunderground v.1.15,2013-06-04 00:15:00,
2013-06-03 19:24:00,85.3,70.3,29.84,ENE,60,0.0,1.0,61,0.00,,,0.00,79,Wunderground v.1.15,2013-06-04 00:24:00,
2013-06-03 19:30:00,85.1,69.7,29.83,ENE,61,0.0,2.0,60,0.00,,,0.00,54,Wunderground v.1.15,2013-06-04 00:30:00,
2013-06-03 19:35:00,84.7,70.2,29.84,ENE,60,0.0,2.0,62,0.00,,,0.00,40,Wunderground v.1.15,2013-06-04 00:35:00,
2013-06-03 19:40:00,84.3,69.9,29.84,ENE,60,0.0,0.0,62,0.00,,,0.00,28,Wunderground v.1.15,2013-06-04 00:40:00,
2013-06-03 19:45:00,84.0,70.0,29.84,ENE,61,0.0,0.0,63,0.00,,,0.00,21,Wunderground v.1.15,2013-06-04 00:45:00,
2013-06-03 19:54:00,83.2,71.5,29.84,ENE,60,0.0,0.0,68,0.00,,,0.00,18,Wunderground v.1.15,2013-06-04 00:54:00,
2013-06-03 19:59:00,82.5,71.7,29.84,ENE,60,0.0,0.0,70,0.00,,,0.00,14,Wunderground v.1.15,2013-06-04 00:59:00,
2013-06-03 20:05:00,81.6,71.7,29.84,ENE,60,0.0,0.0,72,0.00,,,0.00,11,Wunderground v.1.15,2013-06-04 01:05:00,
2013-06-03 20:10:00,80.8,72.1,29.84,ENE,60,0.0,0.0,75,0.00,,,0.00,7,Wunderground v.1.15,2013-06-04 01:10:00,
2013-06-03 20:15:00,80.0,72.1,29.84,ENE,60,0.0,0.0,77,0.00,,,0.00,0,Wunderground v.1.15,2013-06-04 01:15:00,
2013-06-03 20:25:00,78.6,71.5,29.85,ENE,60,0.0,0.0,79,0.00,,,0.00,0,Wunderground v.1.15,2013-06-04 01:25:00,
2013-06-03 20:30:00,78.0,71.7,29.85,ENE,60,0.0,0.0,81,0.00,,,0.00,0,Wunderground v.1.15,2013-06-04 01:30:00,
2013-06-03 20:35:00,77.5,71.6,29.85,ENE,60,0.0,0.0,82,0.00,,,0.00,0,Wunderground v.1.15,2013-06-04 01:35:00,
2013-06-03 20:44:00,76.7,70.8,29.85,ENE,60,0.0,0.0,82,0.00,,,0.00,0,Wunderground v.1.15,2013-06-04 01:44:00,
2013-06-03 20:50:00,76.3,70.8,29.86,ENE,60,0.0,0.0,83,0.00,,,0.00,0,Wunderground v.1.15,2013-06-04 01:50:00,
2013-06-03 20:55:00,76.1,70.6,29.85,ENE,60,0.0,0.0,83,0.00,,,0.00,0,Wunderground v.1.15,2013-06-04 01:55:00,
2013-06-03 21:00:00,75.8,70.6,29.85,ENE,60,0.0,0.0,84,0.00,,,0.00,0,Wunderground v.1.15,2013-06-04 02:00:00,
2013-06-03 21:09:00,75.3,70.5,29.86,ENE,61,0.0,0.0,85,0.00,,,0.00,0,Wunderground v.1.15,2013-06-04 02:09:00,
2013-06-03 21:14:00,75.1,70.6,29.86,ENE,60,0.0,0.0,86,0.00,,,0.00,0,Wunderground v.1.15,2013-06-04 02:14:00,
2013-06-03 21:20:00,74.9,70.4,29.86,ENE,60,0.0,0.0,86,0.00,,,0.00,0,Wunderground v.1.15,2013-06-04 02:20:00,
2013-06-03 21:25:00,74.6,70.1,29.86,ENE,60,0.0,0.0,86,0.00,,,0.00,0,Wunderground v.1.15,2013-06-04 02:25:00,
2013-06-03 21:30:00,74.4,70.3,29.87,ENE,60,0.0,0.0,87,0.00,,,0.00,0,Wunderground v.1.15,2013-06-04 02:30:00,
2013-06-03 21:35:00,74.2,70.1,29.87,ENE,60,0.0,0.0,87,0.00,,,0.00,0,Wunderground v.1.15,2013-06-04 02:35:00,
2013-06-03 21:44:00,73.8,69.7,29.87,ENE,60,0.0,0.0,87,0.00,,,0.00,0,Wunderground v.1.15,2013-06-04 02:44:00,
2013-06-03 21:50:00,73.6,69.5,29.87,ENE,60,0.0,0.0,87,0.00,,,0.00,0,Wunderground v.1.15,2013-06-04 02:50:00,
2013-06-03 22:00:00,73.3,69.2,29.87,ENE,60,0.0,0.0,87,0.00,,,0.00,0,Wunderground v.1.15,2013-06-04 03:00:00,
2013-06-03 22:09:00,73.1,69.3,29.87,ENE,60,0.0,0.0,88,0.00,,,0.00,0,Wunderground v.1.15,2013-06-04 03:09:00,
2013-06-03 22:14:00,73.0,69.2,29.87,ENE,60,0.0,0.0,88,0.00,,,0.00,0,Wunderground v.1.15,2013-06-04 03:14:00,
2013-06-03 22:20:00,72.8,69.0,29.87,ENE,60,0.0,0.0,88,0.00,,,0.00,0,Wunderground v.1.15,2013-06-04 03:20:00,
2013-06-03 22:25:00,72.7,69.3,29.87,ENE,60,0.0,0.0,89,0.00,,,0.00,0,Wunderground v.1.15,2013-06-04 03:25:00,
2013-06-03 22:35:00,72.5,69.1,29.87,ENE,60,0.0,0.0,89,0.00,,,0.00,0,Wunderground v.1.15,2013-06-04 03:35:00,
2013-06-03 22:44:00,72.3,69.2,29.87,ENE,60,0.0,0.0,90,0.00,,,0.00,0,Wunderground v.1.15,2013-06-04 03:44:00,
2013-06-03 22:50:00,72.2,69.4,29.87,ENE,60,0.0,0.0,91,0.00,,,0.00,0,Wunderground v.1.15,2013-06-04 03:50:00,
2013-06-03 22:55:00,72.1,69.3,29.87,ENE,60,0.0,0.0,91,0.00,,,0.00,0,Wunderground v.1.15,2013-06-04 03:55:00,
2013-06-03 23:05:00,71.9,69.1,29.87,ENE,60,0.0,0.0,91,0.00,,,0.00,0,Wunderground v.1.15,2013-06-04 04:05:00,
2013-06-03 23:10:00,71.7,68.9,29.87,ENE,60,0.0,0.0,91,0.00,,,0.00,0,Wunderground v.1.15,2013-06-04 04:10:00,
2013-06-03 23:15:00,71.7,69.3,29.87,ENE,61,0.0,0.0,92,0.00,,,0.00,0,Wunderground v.1.15,2013-06-04 04:15:00,
2013-06-03 23:24:00,71.7,69.3,29.88,ENE,60,0.0,0.0,92,0.00,,,0.00,0,Wunderground v.1.15,2013-06-04 04:24:00,
2013-06-03 23:30:00,71.6,69.2,29.88,ENE,60,0.0,0.0,92,0.00,,,0.00,0,Wunderground v.1.15,2013-06-04 04:30:00,
2013-06-03 23:35:00,71.6,69.2,29.88,ENE,60,0.0,0.0,92,0.00,,,0.00,0,Wunderground v.1.15,2013-06-04 04:35:00,
2013-06-03 23:40:00,71.6,69.2,29.88,ENE,60,0.0,0.0,92,0.00,,,0.00,0,Wunderground v.1.15,2013-06-04 04:40:00,
2013-06-03 23:49:00,71.7,69.3,29.88,ENE,60,0.0,0.0,92,0.00,,,0.00,0,Wunderground v.1.15,2013-06-04 04:49:00,
2013-06-03 23:54:00,71.7,69.3,29.88,ENE,60,0.0,0.0,92,0.00,,,0.00,0,Wunderground v.1.15,2013-06-04 04:54:00,
2013-06-03 23:59:00,71.6,69.2,29.88,ENE,60,0.0,0.0,92,0.00,,,0.00,0,Wunderground v.1.15,2013-06-04 04:59:00,